TimeEST,TemperatureF,Dew PointF,Humidity,Sea Level PressureIn,VisibilityMPH,Wind Direction,Wind SpeedMPH,Gust SpeedMPH,PrecipitationIn,Events,Conditions,WindDirDegrees,DateUTC
1:53 AM,60.1,52.0,75,30.07,10.0,SSW,10.4,-,N/A,,Overcast,200,2012-12-04 06:53:00
2:53 AM,59.0,52.0,78,30.07,10.0,South,12.7,-,N/A,,Overcast,190,2012-12-04 07:53:00
3:53 AM,57.9,51.1,78,30.06,10.0,South,9.2,-,N/A,,Overcast,190,2012-12-04 08:53:00
4:53 AM,59.0,51.1,75,30.05,10.0,South,10.4,-,N/A,,Overcast,190,2012-12-04 09:53:00
5:53 AM,57.9,50.0,75,30.04,10.0,South,11.5,-,N/A,,Overcast,190,2012-12-04 10:53:00
6:53 AM,57.9,50.0,75,30.06,10.0,South,10.4,-,N/A,,Overcast,190,2012-12-04 11:53:00
7:53 AM,57.9,51.1,78,30.06,10.0,South,11.5,-,N/A,,Overcast,190,2012-12-04 12:53:00
8:53 AM,59.0,52.0,78,30.06,10.0,South,11.5,-,N/A,,Mostly Cloudy,190,2012-12-04 13:53:00
9:43 AM,60.8,53.6,77,30.07,10.0,SSW,11.5,19.6,N/A,,Mostly Cloudy,200,2012-12-04 14:43:00
9:53 AM,61.0,53.1,75,30.06,10.0,SSW,13.8,18.4,N/A,,Mostly Cloudy,200,2012-12-04 14:53:00
10:53 AM,62.1,55.0,78,30.06,10.0,SSW,13.8,-,N/A,,Overcast,200,2012-12-04 15:53:00
11:53 AM,62.1,55.0,78,30.04,10.0,SSW,9.2,-,N/A,,Overcast,200,2012-12-04 16:53:00
12:53 PM,64.0,57.0,78,30.01,10.0,SSW,15.0,19.6,N/A,,Overcast,200,2012-12-04 17:53:00
1:53 PM,63.0,57.0,81,30.00,8.0,SW,12.7,-,0.00,Rain,Light Rain,230,2012-12-04 18:53:00
1:59 PM,62.6,57.2,82,30.00,1.8,SW,11.5,-,0.06,Rain,Heavy Rain,230,2012-12-04 18:59:00
2:16 PM,60.8,59.0,94,30.00,3.0,SW,11.5,-,0.14,Rain,Light Rain,220,2012-12-04 19:16:00
2:22 PM,60.8,59.0,94,30.00,8.0,SW,8.1,-,0.14,,Overcast,220,2012-12-04 19:22:00
2:53 PM,61.0,60.1,97,29.99,5.0,SW,8.1,-,0.15,Rain,Light Rain,220,2012-12-04 19:53:00
3:15 PM,60.8,59.0,94,30.00,1.8,SW,10.4,-,0.02,Rain,Rain,220,2012-12-04 20:15:00
3:28 PM,60.8,60.8,100,30.00,1.8,SW,9.2,-,0.04,Rain,Light Rain,230,2012-12-04 20:28:00
3:50 PM,53.6,53.6,100,30.03,3.0,NNW,23.0,28.8,0.12,Rain,Rain,330,2012-12-04 20:50:00
3:53 PM,53.1,52.0,96,30.04,4.0,NW,18.4,27.6,0.12,Rain,Light Rain,320,2012-12-04 20:53:00
4:02 PM,51.8,51.8,100,30.04,10.0,NNW,21.9,27.6,0.00,Rain,Light Rain,340,2012-12-04 21:02:00
4:10 PM,51.8,50.0,94,30.04,10.0,North,17.3,23.0,0.00,Thunderstorm,Overcast,350,2012-12-04 21:10:00
4:23 PM,50.0,48.2,94,30.05,10.0,NNW,11.5,26.5,0.00,,Overcast,340,2012-12-04 21:23:00
4:53 PM,46.0,45.0,96,30.08,10.0,North,13.8,-,0.01,,Overcast,360,2012-12-04 21:53:00
5:53 PM,45.0,42.1,90,30.12,9.0,North,10.4,19.6,0.00,Rain,Light Rain,350,2012-12-04 22:53:00
6:07 PM,44.6,41.0,87,30.11,10.0,North,9.2,18.4,0.01,Rain,Light Rain,360,2012-12-04 23:07:00
6:53 PM,45.0,42.1,90,30.15,10.0,NNW,8.1,-,0.01,Rain,Light Rain,340,2012-12-04 23:53:00
7:53 PM,45.0,43.0,93,30.17,10.0,NW,3.5,-,0.01,,Overcast,310,2012-12-05 00:53:00
8:53 PM,43.0,41.0,93,30.16,10.0,Calm,Calm,-,N/A,,Mostly Cloudy,0,2012-12-05 01:53:00
9:53 PM,43.0,42.1,97,30.18,10.0,Calm,Calm,-,N/A,,Clear,0,2012-12-05 02:53:00
10:53 PM,41.0,41.0,100,30.19,10.0,Calm,Calm,-,N/A,,Clear,0,2012-12-05 03:53:00
11:53 PM,39.9,-9999,N/A,30.19,7.0,Calm,Calm,-,N/A,,Clear,0,2012-12-05 04:53:00